When you browse on this site, cookies collect data to enhance your experience and personalize the content and advertising you see.
Visit our Privacy Policy to learn more. By continuing to use the site, you agree to this use of cookies and data.
  • In Czech Republic
  • List of Countries
  • For 7 days
  • Water Temperature
  • Satellite Maps
  • Weather Map
  • Weather Widgets
  • user-avatar
    Login

    Hourly Weather Minot

    Today, 16 July, Tuesday

    Time Temperature Precipitation Wind Pressure Humidity
    00:00 +18°C° 0 mm 2 mps 716 mmHg 74%
    01:00 +18°C° 0 mm 2 mps 716 mmHg 74%
    02:00 +17°C° 0 mm 2 mps 716 mmHg 74%
    03:00 +18°C° 0 mm 1 mps 716 mmHg 76%
    04:00 +18°C° 0 mm 1 mps 716 mmHg 78%
    05:00 +16°C° 0 mm 0 mps 716 mmHg 79%
    06:00 +18°C° 0 mm 0 mps 716 mmHg 74%
    07:00 +22°C° 0 mm 1 mps 717 mmHg 68%
    08:00 +24°C° 0 mm 1 mps 717 mmHg 63%
    09:00 +25°C° 0 mm 1 mps 717 mmHg 59%
    10:00 +26°C° 0 mm 1 mps 717 mmHg 56%
    11:00 +27°C° 0 mm 2 mps 717 mmHg 52%
    12:00 +25°C° 0.6 mm 2 mps 717 mmHg 62%
    13:00 +23°C° 0.6 mm 2 mps 716 mmHg 73%
    14:00 +20°C° 0.6 mm 3 mps 716 mmHg 84%
    15:00 +20°C° 0.2 mm 2 mps 716 mmHg 86%
    16:00 +19°C° 0.2 mm 2 mps 715 mmHg 88%
    17:00 +19°C° 0.2 mm 2 mps 715 mmHg 90%
    18:00 +19°C° 0 mm 2 mps 715 mmHg 90%
    19:00 +19°C° 0 mm 2 mps 715 mmHg 89%
    20:00 +19°C° 0 mm 2 mps 715 mmHg 88%
    21:00 +18°C° 0 mm 2 mps 714 mmHg 88%
    22:00 +17°C° 0 mm 2 mps 714 mmHg 88%
    23:00 +17°C° 0 mm 2 mps 714 mmHg 87%

    Tomorrow, 17 July, Wednesday

    Time Temperature Precipitation Wind Pressure Humidity
    00:00 +17°C° 0.3 mm 2 mps 714 mmHg 88%
    01:00 +17°C° 0.3 mm 2 mps 714 mmHg 89%
    02:00 +17°C° 0.3 mm 2 mps 713 mmHg 90%
    03:00 +17°C° 0.3 mm 2 mps 713 mmHg 91%
    04:00 +17°C° 0.3 mm 2 mps 712 mmHg 92%
    05:00 +17°C° 0.3 mm 2 mps 712 mmHg 93%
    06:00 +18°C° 0.2 mm 3 mps 712 mmHg 92%
    07:00 +19°C° 0.2 mm 3 mps 712 mmHg 90%
    08:00 +20°C° 0.2 mm 4 mps 712 mmHg 88%
    09:00 +21°C° 0.7 mm 4 mps 712 mmHg 88%
    10:00 +21°C° 0.7 mm 3 mps 711 mmHg 88%
    11:00 +21°C° 0.7 mm 3 mps 711 mmHg 88%
    12:00 +21°C° 0.5 mm 3 mps 711 mmHg 84%
    13:00 +21°C° 0.5 mm 3 mps 710 mmHg 80%
    14:00 +21°C° 0.5 mm 3 mps 710 mmHg 77%
    15:00 +24°C° 0 mm 3 mps 710 mmHg 71%
    16:00 +25°C° 0 mm 4 mps 710 mmHg 66%
    17:00 +27°C° 0 mm 4 mps 710 mmHg 61%
    18:00 +25°C° 0 mm 4 mps 709 mmHg 65%
    19:00 +22°C° 0 mm 3 mps 709 mmHg 70%
    20:00 +21°C° 0 mm 3 mps 709 mmHg 75%
    21:00 +20°C° 0 mm 3 mps 708 mmHg 73%
    22:00 +20°C° 0 mm 4 mps 708 mmHg 72%
    23:00 +19°C° 0 mm 4 mps 708 mmHg 70%

    Day after tomorrow, 18 July, Thursday

    Time Temperature Precipitation Wind Pressure Humidity
    00:00 +20°C° 0.1 mm 4 mps 708 mmHg 70%
    01:00 +20°C° 0.1 mm 5 mps 708 mmHg 70%
    02:00 +20°C° 0.1 mm 6 mps 708 mmHg 70%
    03:00 +20°C° 0 mm 6 mps 707 mmHg 71%
    04:00 +20°C° 0 mm 7 mps 707 mmHg 71%
    05:00 +20°C° 0 mm 8 mps 707 mmHg 72%
    06:00 +20°C° 0.2 mm 7 mps 707 mmHg 75%
    07:00 +20°C° 0.2 mm 7 mps 707 mmHg 77%
    08:00 +20°C° 0.2 mm 7 mps 707 mmHg 80%
    09:00 +22°C° 0 mm 7 mps 707 mmHg 71%
    10:00 +26°C° 0 mm 7 mps 707 mmHg 61%
    11:00 +28°C° 0 mm 7 mps 707 mmHg 52%
    12:00 +28°C° 0 mm 7 mps 707 mmHg 48%
    13:00 +29°C° 0 mm 8 mps 707 mmHg 43%
    14:00 +29°C° 0 mm 8 mps 707 mmHg 39%
    15:00 +29°C° 0 mm 7 mps 707 mmHg 42%
    16:00 +28°C° 0 mm 6 mps 707 mmHg 46%
    17:00 +27°C° 0 mm 5 mps 707 mmHg 50%
    18:00 +25°C° 0 mm 5 mps 707 mmHg 51%
    19:00 +22°C° 0 mm 5 mps 707 mmHg 51%
    20:00 +20°C° 0 mm 4 mps 707 mmHg 52%
    21:00 +20°C° 0 mm 4 mps 707 mmHg 48%
    22:00 +19°C° 0 mm 5 mps 707 mmHg 43%
    23:00 +19°C° 0 mm 5 mps 708 mmHg 39%

    19 July, Friday

    Time Temperature Precipitation Wind Pressure Humidity
    00:00 +17°C° 0 mm 5 mps 708 mmHg 39%
    01:00 +17°C° 0 mm 5 mps 708 mmHg 39%
    02:00 +17°C° 0 mm 5 mps 708 mmHg 39%
    03:00 +16°C° 0 mm 5 mps 708 mmHg 41%
    04:00 +16°C° 0 mm 5 mps 709 mmHg 43%
    05:00 +17°C° 0 mm 4 mps 709 mmHg 45%
    06:00 +19°C° 0 mm 6 mps 709 mmHg 44%
    07:00 +20°C° 0 mm 7 mps 709 mmHg 44%
    08:00 +22°C° 0 mm 8 mps 710 mmHg 43%
    09:00 +23°C° 0 mm 8 mps 710 mmHg 40%
    10:00 +24°C° 0 mm 8 mps 710 mmHg 37%
    11:00 +26°C° 0 mm 9 mps 711 mmHg 34%
    12:00 +26°C° 0 mm 9 mps 711 mmHg 34%
    13:00 +26°C° 0 mm 8 mps 711 mmHg 34%
    14:00 +27°C° 0 mm 8 mps 711 mmHg 33%
    15:00 +27°C° 0 mm 7 mps 712 mmHg 38%
    16:00 +26°C° 0 mm 6 mps 712 mmHg 42%
    17:00 +26°C° 0 mm 5 mps 712 mmHg 47%
    18:00 +23°C° 0 mm 4 mps 713 mmHg 55%
    19:00 +20°C° 0 mm 3 mps 713 mmHg 63%
    20:00 +18°C° 0 mm 2 mps 713 mmHg 70%
    21:00 +17°C° 0 mm 2 mps 714 mmHg 75%
    22:00 +16°C° 0 mm 2 mps 714 mmHg 81%
    23:00 +15°C° 0 mm 1 mps 714 mmHg 86%

    20 July, Saturday

    Time Temperature Precipitation Wind Pressure Humidity
    00:00 +14°C° 0 mm 1 mps 715 mmHg 87%
    01:00 +14°C° 0 mm 1 mps 715 mmHg 89%
    02:00 +12°C° 0 mm 0 mps 715 mmHg 91%
    03:00 +13°C° 0 mm 1 mps 716 mmHg 92%
    04:00 +13°C° 0 mm 1 mps 716 mmHg 93%
    05:00 +13°C° 0 mm 1 mps 716 mmHg 94%
    06:00 +15°C° 0 mm 1 mps 717 mmHg 88%
    07:00 +16°C° 0 mm 1 mps 717 mmHg 81%
    08:00 +19°C° 0 mm 1 mps 718 mmHg 75%
    09:00 +19°C° 0 mm 2 mps 718 mmHg 71%
    10:00 +20°C° 0 mm 2 mps 718 mmHg 67%
    11:00 +21°C° 0 mm 2 mps 718 mmHg 63%
    12:00 +23°C° 0 mm 2 mps 718 mmHg 62%
    13:00 +23°C° 0 mm 2 mps 719 mmHg 62%
    14:00 +23°C° 0 mm 2 mps 719 mmHg 62%
    15:00 +21°C° 0.1 mm 2 mps 719 mmHg 66%
    16:00 +20°C° 0.1 mm 2 mps 719 mmHg 71%
    17:00 +20°C° 0.1 mm 3 mps 719 mmHg 76%
    18:00 +18°C° 0.6 mm 2 mps 719 mmHg 79%
    19:00 +16°C° 0.6 mm 1 mps 719 mmHg 82%
    20:00 +15°C° 0.6 mm 1 mps 719 mmHg 85%
    21:00 +14°C° 0 mm 1 mps 719 mmHg 85%
    22:00 +13°C° 0 mm 1 mps 719 mmHg 86%
    23:00 +13°C° 0 mm 1 mps 719 mmHg 86%

    21 July, Sunday

    Time Temperature Precipitation Wind Pressure Humidity
    00:00 +12°C° 0 mm 1 mps 719 mmHg 87%
    01:00 +12°C° 0 mm 1 mps 720 mmHg 89%
    02:00 +12°C° 0 mm 1 mps 720 mmHg 90%
    03:00 +12°C° 0 mm 1 mps 720 mmHg 90%
    04:00 +12°C° 0 mm 1 mps 720 mmHg 90%
    05:00 +12°C° 0 mm 1 mps 721 mmHg 90%
    06:00 +14°C° 0 mm 1 mps 721 mmHg 84%
    07:00 +16°C° 0 mm 2 mps 722 mmHg 78%
    08:00 +18°C° 0 mm 2 mps 722 mmHg 72%
    09:00 +21°C° 0 mm 1 mps 722 mmHg 66%
    10:00 +23°C° 0 mm 1 mps 722 mmHg 60%
    11:00 +24°C° 0 mm 1 mps 723 mmHg 54%
    12:00 +25°C° 0 mm 1 mps 723 mmHg 50%
    13:00 +26°C° 0 mm 1 mps 722 mmHg 47%
    14:00 +26°C° 0 mm 1 mps 722 mmHg 43%
    15:00 +26°C° 0 mm 1 mps 722 mmHg 44%
    16:00 +26°C° 0 mm 1 mps 722 mmHg 44%
    17:00 +26°C° 0 mm 1 mps 722 mmHg 45%
    18:00 +24°C° 0 mm 1 mps 722 mmHg 52%
    19:00 +21°C° 0 mm 2 mps 722 mmHg 59%
    20:00 +18°C° 0 mm 2 mps 722 mmHg 66%
    21:00 +18°C° 0 mm 2 mps 722 mmHg 70%
    22:00 +17°C° 0 mm 2 mps 722 mmHg 75%
    23:00 +16°C° 0 mm 3 mps 722 mmHg 80%
    Show more